User: anonymous   Login
Location: Caltech
(34.1382°N, 118.1253°W)
Time: 20:34:17
(UTC-07:00)
Language:

Cosmos 1508 Rocket - Orbit

View from above orbital plane
View from above orbital plane
View from above satellite
View from above satellite

Ground track
Ground track

The orbit data is extracted from the following two-line orbital elements,

1 14484U 83111B   15153.18136255  .00144653  57456-5  48116-3 0  9999
2 14484 082.8171 340.7416 0075896 065.6968 053.0555 15.85429764626783
Epoch (UTC): 02 June 2015 04:21:09
Eccentricity: 0.0075896
inclination: 82.8171°
perigee height: 264 km
apogee height: 366 km
right ascension of ascending node: 340.7416°
argument of perigee: 65.6968°
revolutions per day: 15.85429764
mean anomaly at epoch: 53.0555°
orbit number at epoch: 62678

The dashed part of the orbit path shows where the satellite is in the earth's shadow,  

DLR